FW7016 Weather Reports


Display with metric or nautical units.
time (UTC)temp
F
wind
direction
speed
MPH
gust
MPH
rain 1hr
in
rain 24hr
in
rain mn
in
humidity
%
barometer
mb
20260905010503 80 166 5.0 6.0 0.00 0.00 0.00 37 1017.9
20260905005959 81 155 5.0 7.0 0.00 0.00 0.00 35 1017.9
20260905005455 82 140 7.0 9.0 0.00 0.00 0.00 34 1017.7
20260905004950 82 154 7.0 10.0 0.00 0.00 0.00 33 1017.5
20260905004445 83 149 9.0 10.0 0.00 0.00 0.00 32 1017.7
20260905003940 84 158 8.0 10.0 0.00 0.00 0.00 31 1017.6
20260905003436 84 148 9.0 13.0 0.00 0.00 0.00 30 1017.7
20260905002932 84 148 13.0 18.0 0.00 0.00 0.00 29 1017.7
20260905002432 85 165 9.0 14.0 0.00 0.00 0.00 28 1017.7
20260905001931 86 163 9.0 15.0 0.00 0.00 0.00 27 1017.5
20260905001427 86 169 12.0 15.0 0.00 0.00 0.00 26 1017.5
20260905000921 86 145 9.0 13.0 0.00 0.00 0.00 25 1017.7
20260905000417 87 171 12.0 15.0 0.00 0.00 0.00 24 1017.7
20260904235912 87 191 12.0 16.0 0.00 0.00 0.00 24 1017.6
20260904235408 87 211 9.0 13.0 0.00 0.00 0.00 27 1017.6
20260904234908 87 191 7.0 11.0 0.00 0.00 0.00 26 1017.5
20260904234403 87 177 9.0 11.0 0.00 0.00 0.00 25 1017.3
20260904233858 88 187 5.0 9.0 0.00 0.00 0.00 25 1017.6
20260904233354 87 195 5.0 10.0 0.00 0.00 0.00 24 1017.5
20260904232850 88 159 9.0 15.0 0.00 0.00 0.00 24 1017.4
20260904232346 88 131 10.0 15.0 0.00 0.00 0.00 24 1017.5
20260904231842 87 172 9.0 17.0 0.00 0.00 0.00 24 1017.4
20260904231336 88 150 6.0 11.0 0.00 0.00 0.00 23 1017.5
20260904230832 89 184 14.0 15.0 0.00 0.00 0.00 21 1017.6
20260904230330 88 163 13.0 16.0 0.00 0.00 0.00 22 1017.4
20260904225825 88 181 9.0 17.0 0.00 0.00 0.00 22 1017.7
20260904225324 89 181 8.0 16.0 0.00 0.00 0.00 21 1017.7
20260904224824 89 203 8.0 10.0 0.00 0.00 0.00 22 1017.7
20260904224320 88 184 9.0 14.0 0.00 0.00 0.00 22 1017.7
20260904223818 88 206 13.0 16.0 0.00 0.00 0.00 23 1017.6
20260904223313 88 168 7.0 11.0 0.00 0.00 0.00 23 1017.6
20260904222810 87 162 8.0 18.0 0.00 0.00 0.00 23 1017.6
20260904222306 88 171 15.0 16.0 0.00 0.00 0.00 23 1017.7
20260904221804 88 197 9.0 15.0 0.00 0.00 0.00 24 1017.7
20260904221259 88 164 10.0 20.0 0.00 0.00 0.00 25 1017.9
20260904220754 87 200 7.0 10.0 0.00 0.00 0.00 25 1017.5
20260904220253 88 218 6.0 10.0 0.00 0.00 0.00 27 1017.6
20260904215748 88 170 4.0 8.0 0.00 0.00 0.00 22 1017.7
20260904215244 88 214 6.0 9.0 0.00 0.00 0.00 23 1017.6
20260904214739 88 222 11.0 14.0 0.00 0.00 0.00 24 1017.6
20260904214235 88 171 13.0 16.0 0.00 0.00 0.00 23 1017.7
20260904213733 88 182 11.0 18.0 0.00 0.00 0.00 25 1018.1
20260904213229 88 174 14.0 18.0 0.00 0.00 0.00 24 1017.9
20260904212725 87 178 8.0 14.0 0.00 0.00 0.00 24 1018.0
20260904212220 89 173 8.0 15.0 0.00 0.00 0.00 24 1017.9
20260904211719 89 169 15.0 20.0 0.00 0.00 0.00 25 1018.0
20260904211214 88 220 5.0 7.0 0.00 0.00 0.00 25 1018.1
20260904210709 88 188 11.0 16.0 0.00 0.00 0.00 21 1018.1
20260904210204 88 197 9.0 11.0 0.00 0.00 0.00 29 1018.1
20260904205659 88 158 10.0 13.0 0.00 0.00 0.00 24 1017.9
20260904205155 88 157 11.0 15.0 0.00 0.00 0.00 24 1018.2
20260904204652 88 170 9.0 10.0 0.00 0.00 0.00 22 1018.1
20260904204147 88 201 11.0 20.0 0.00 0.00 0.00 28 1018.0
20260904203643 87 217 7.0 8.0 0.00 0.00 0.00 22 1018.3
20260904203140 88 219 14.0 17.0 0.00 0.00 0.00 24 1018.2
20260904202635 89 166 11.0 14.0 0.00 0.00 0.00 24 1018.1
20260904202131 89 169 7.0 14.0 0.00 0.00 0.00 25 1018.0
20260904201626 89 164 10.0 14.0 0.00 0.00 0.00 23 1018.1
20260904201121 87 179 11.0 16.0 0.00 0.00 0.00 23 1018.1
20260904200620 88 193 9.0 11.0 0.00 0.00 0.00 29 1018.1
20260904200115 88 220 6.0 7.0 0.00 0.00 0.00 27 1018.2
20260904195614 88 202 11.0 15.0 0.00 0.00 0.00 28 1018.1
20260904195108 87 169 7.0 9.0 0.00 0.00 0.00 31 1018.2
20260904194608 86 223 10.0 15.0 0.00 0.00 0.00 29 1018.1
20260904194103 88 216 7.0 16.0 0.00 0.00 0.00 32 1017.9
20260904193557 87 209 8.0 10.0 0.00 0.00 0.00 29 1018.1
20260904193054 88 220 8.0 10.0 0.00 0.00 0.00 28 1018.0
20260904192554 88 214 8.0 13.0 0.00 0.00 0.00 29 1018.0
20260904192049 88 145 9.0 22.0 0.00 0.00 0.00 26 1018.1
20260904191546 87 187 12.0 23.0 0.00 0.00 0.00 28 1018.0
20260904191042 87 209 7.0 15.0 0.00 0.00 0.00 32 1018.2
20260904190537 88 196 9.0 16.0 0.00 0.00 0.00 31 1018.1
20260904190034 88 206 8.0 13.0 0.00 0.00 0.00 28 1018.1
20260904185530 87 155 11.0 14.0 0.00 0.00 0.00 27 1018.3
20260904185024 88 217 5.0 7.0 0.00 0.00 0.00 28 1018.3
20260904184519 87 239 2.0 5.0 0.00 0.00 0.00 26 1018.2
20260904184014 88 211 12.0 14.0 0.00 0.00 0.00 27 1018.3
20260904183509 89 220 6.0 7.0 0.00 0.00 0.00 26 1018.3
20260904183004 86 185 0.0 0.0 0.00 0.00 0.00 25 1018.6
20260904182459 87 62 4.0 6.0 0.00 0.00 0.00 25 1018.6
20260904181953 87 237 7.0 11.0 0.00 0.00 0.00 28 1018.8
20260904181449 87 286 9.0 10.0 0.00 0.00 0.00 28 1018.8
20260904180944 87 228 6.0 8.0 0.00 0.00 0.00 34 1018.8
20260904180438 87 211 1.0 2.0 0.00 0.00 0.00 26 1018.7
20260904175938 87 305 5.0 9.0 0.00 0.00 0.00 26 1018.8
20260904175437 87 218 4.0 9.0 0.00 0.00 0.00 27 1019.0
20260904174931 86 278 10.0 11.0 0.00 0.00 0.00 28 1019.0
20260904174427 86 234 5.0 11.0 0.00 0.00 0.00 27 1019.0
20260904173924 86 317 4.0 9.0 0.00 0.00 0.00 27 1018.9
20260904173419 86 261 10.0 14.0 0.00 0.00 0.00 29 1019.0
20260904172914 86 296 10.0 13.0 0.00 0.00 0.00 28 1018.9
20260904172408 85 270 5.0 10.0 0.00 0.00 0.00 29 1018.9
20260904171903 86 218 7.0 9.0 0.00 0.00 0.00 31 1018.8
20260904171358 85 276 9.0 14.0 0.00 0.00 0.00 29 1019.0
20260904170854 85 243 8.0 14.0 0.00 0.00 0.00 29 1018.9
20260904170349 85 243 11.0 13.0 0.00 0.00 0.00 30 1018.8
20260904165844 84 255 8.0 14.0 0.00 0.00 0.00 29 1018.9
20260904165337 85 259 10.0 18.0 0.00 0.00 0.00 31 1018.9
20260904164832 85 296 14.0 18.0 0.00 0.00 0.00 29 1018.9
20260904164327 84 289 15.0 16.0 0.00 0.00 0.00 29 1018.9
20260904163824 84 287 10.0 14.0 0.00 0.00 0.00 31 1019.0
20260904163323 84 246 9.0 15.0 0.00 0.00 0.00 33 1018.9
20260904162822 84 338 12.0 16.0 0.00 0.00 0.00 30 1018.8
20260904162318 83 270 13.0 16.0 0.00 0.00 0.00 29 1018.7
20260904161814 83 258 10.0 14.0 0.00 0.00 0.00 31 1018.9
20260904161313 82 13 9.0 13.0 0.00 0.00 0.00 31 1018.8
20260904160809 82 294 13.0 16.0 0.00 0.00 0.00 30 1019.0
20260904160304 81 339 7.0 10.0 0.00 0.00 0.00 32 1018.8
20260904155759 81 300 9.0 13.0 0.00 0.00 0.00 31 1018.8
20260904155258 81 130 6.0 10.0 0.00 0.00 0.00 32 1018.9
20260904154756 80 268 4.0 7.0 0.00 0.00 0.00 32 1018.8
20260904154252 80 281 5.0 9.0 0.00 0.00 0.00 32 1018.6
20260904153747 80 287 6.0 9.0 0.00 0.00 0.00 32 1018.9
20260904153243 79 324 7.0 11.0 0.00 0.00 0.00 32 1018.8
20260904152739 79 18 6.0 8.0 0.00 0.00 0.00 33 1018.7
20260904152234 78 328 6.0 9.0 0.00 0.00 0.00 33 1018.9
20260904151729 78 321 9.0 10.0 0.00 0.00 0.00 31 1018.7
20260904151227 77 350 7.0 8.0 0.00 0.00 0.00 33 1018.4
20260904150724 77 323 9.0 10.0 0.00 0.00 0.00 32 1018.6
20260904150219 77 281 5.0 8.0 0.00 0.00 0.00 34 1018.7
20260904145717 77 302 8.0 9.0 0.00 0.00 0.00 33 1018.8
20260904145213 76 300 8.0 10.0 0.00 0.00 0.00 34 1018.7
20260904144708 75 306 8.0 10.0 0.00 0.00 0.00 34 1018.7
20260904144204 74 317 6.0 11.0 0.00 0.00 0.00 37 1018.7
20260904143659 73 291 4.0 6.0 0.00 0.00 0.00 43 1018.4
20260904143155 72 302 5.0 7.0 0.00 0.00 0.00 43 1018.7
20260904142652 71 283 1.0 8.0 0.00 0.00 0.00 45 1018.6
20260904142147 69 295 6.0 8.0 0.00 0.00 0.00 47 1018.8
20260904141642 68 303 8.0 13.0 0.00 0.00 0.00 50 1018.7
20260904141137 66 300 9.0 14.0 0.00 0.00 0.00 53 1018.6
20260904140628 65 297 8.0 11.0 0.00 0.00 0.00 56 1018.6
20260904140127 64 304 7.0 15.0 0.00 0.00 0.00 58 1018.4
20260904135620 63 288 7.0 13.0 0.00 0.00 0.00 59 1018.4
20260904135117 62 294 13.0 16.0 0.00 0.00 0.00 60 1018.3
20260904134613 62 288 9.0 14.0 0.00 0.00 0.00 64 1018.4
20260904134111 60 264 13.0 16.0 0.00 0.00 0.00 65 1018.2
20260904133607 60 200 7.0 11.0 0.00 0.00 0.00 68 1018.2
20260904133102 58 291 10.0 16.0 0.00 0.00 0.00 69 1017.9
20260904132602 57 293 10.0 13.0 0.00 0.00 0.00 73 1018.0
20260904132057 55 286 7.0 8.0 0.00 0.00 0.00 75 1018.0
20260904131551 55 295 5.0 7.0 0.00 0.00 0.00 76 1017.9
20260904131046 54 287 7.0 7.0 0.00 0.00 0.00 77 1017.6
20260904130546 53 289 5.0 7.0 0.00 0.00 0.00 78 1017.9
20260904130040 53 265 3.0 5.0 0.00 0.00 0.00 78 1017.9
20260904125538 53 246 4.0 5.0 0.00 0.00 0.00 79 1017.7
20260904125032 52 307 4.0 6.0 0.00 0.00 0.00 79 1017.7
20260904124528 51 240 4.0 6.0 0.00 0.00 0.00 79 1018.0
20260904124023 52 301 5.0 6.0 0.00 0.00 0.00 79 1017.5
20260904123522 53 289 6.0 8.0 0.00 0.00 0.00 77 1017.7
20260904123013 54 299 6.0 8.0 0.00 0.00 0.00 76 1017.5
20260904122507 54 275 7.0 8.0 0.00 0.00 0.00 75 1017.5
20260904122002 55 210 8.0 9.0 0.00 0.00 0.00 75 1017.6
20260904121458 55 293 8.0 9.0 0.00 0.00 0.00 73 1017.6
20260904120954 56 310 6.0 7.0 0.00 0.00 0.00 72 1017.6
20260904120449 57 180 4.0 5.0 0.00 0.00 0.00 71 1017.7
20260904115950 57 198 1.0 2.0 0.00 0.00 0.00 72 1017.6
20260904115446 57 267 3.0 5.0 0.00 0.00 0.00 71 1017.4
20260904114945 58 281 5.0 6.0 0.00 0.00 0.00 70 1017.7
20260904114440 58 229 3.0 8.0 0.00 0.00 0.00 71 1017.3
20260904113936 57 202 3.0 6.0 0.00 0.00 0.00 74 1017.4
20260904113435 55 199 2.0 2.0 0.00 0.00 0.00 74 1017.1
20260904112934 55 237 2.0 2.0 0.00 0.00 0.00 75 1017.5
20260904112430 54 257 2.0 6.0 0.00 0.00 0.00 77 1017.6
20260904111925 55 196 1.0 2.0 0.00 0.00 0.00 77 1017.5
20260904111420 54 286 3.0 3.0 0.00 0.00 0.00 78 1017.5
20260904110917 56 200 1.0 3.0 0.00 0.00 0.00 75 1017.4
20260904110415 57 211 2.0 2.0 0.00 0.00 0.00 74 1017.6
20260904105910 57 257 2.0 5.0 0.00 0.00 0.00 74 1017.7
20260904105406 56 199 1.0 2.0 0.00 0.00 0.00 75 1017.4
20260904104901 56 218 2.0 3.0 0.00 0.00 0.00 75 1017.5
20260904104355 57 193 0.0 1.0 0.00 0.00 0.00 75 1017.1
20260904103853 57 202 1.0 1.0 0.00 0.00 0.00 75 1017.3
20260904103353 58 198 1.0 2.0 0.00 0.00 0.00 74 1017.4
20260904102849 59 224 2.0 3.0 0.00 0.00 0.00 72 1017.3
20260904102349 59 208 2.0 2.0 0.00 0.00 0.00 71 1017.6
20260904101839 59 199 1.0 5.0 0.00 0.00 0.00 71 1017.4
20260904101336 59 220 2.0 7.0 0.00 0.00 0.00 72 1017.4
20260904100831 59 285 5.0 7.0 0.00 0.00 0.00 72 1017.6
20260904100327 59 263 6.0 9.0 0.00 0.00 0.00 73 1017.6
20260904095822 60 253 6.0 8.0 0.00 0.00 0.00 73 1017.4
20260904095322 60 286 7.0 8.0 0.00 0.00 0.00 73 1017.5
20260904094818 60 242 2.0 3.0 0.00 0.00 0.00 73 1017.3
20260904094312 61 217 5.0 7.0 0.00 0.00 0.00 73 1017.4
20260904093809 62 289 7.0 8.0 0.00 0.00 0.00 72 1017.3
20260904093309 63 192 5.0 8.0 0.00 0.00 0.00 69 1017.0
20260904092804 63 171 8.0 10.0 0.00 0.00 0.00 69 1016.8
20260904092301 63 176 9.0 11.0 0.00 0.00 0.00 69 1016.7
20260904091756 63 162 8.0 13.0 0.00 0.00 0.00 69 1016.3
20260904091251 62 112 10.0 13.0 0.00 0.00 0.00 70 1016.2
20260904090746 62 158 10.0 13.0 0.00 0.00 0.00 70 1016.2
20260904090242 63 151 11.0 15.0 0.00 0.00 0.00 69 1016.3
20260904085737 62 151 11.0 15.0 0.00 0.00 0.00 69 1016.4
20260904085232 62 150 11.0 14.0 0.00 0.00 0.00 69 1016.4
20260904084726 62 153 9.0 11.0 0.00 0.00 0.00 70 1016.6
20260904084222 61 151 8.0 10.0 0.00 0.00 0.00 70 1016.6
20260904083719 61 147 6.0 7.0 0.00 0.00 0.00 71 1016.7
20260904083215 60 142 5.0 7.0 0.00 0.00 0.00 70 1016.9
20260904082714 60 150 4.0 5.0 0.00 0.00 0.00 70 1016.9
20260904082210 60 176 4.0 5.0 0.00 0.00 0.00 71 1016.9
20260904081659 60 154 3.0 5.0 0.00 0.00 0.00 70 1016.9
20260904081154 61 158 4.0 5.0 0.00 0.00 0.00 69 1017.0
20260904080650 62 157 3.0 5.0 0.00 0.00 0.00 67 1017.0
20260904080146 62 144 4.0 6.0 0.00 0.00 0.00 66 1017.3
20260904075643 62 158 5.0 6.0 0.00 0.00 0.00 67 1017.4
20260904075142 61 151 4.0 5.0 0.00 0.00 0.00 67 1017.5
20260904074636 62 157 3.0 5.0 0.00 0.00 0.00 66 1017.3
20260904074131 63 164 4.0 5.0 0.00 0.00 0.00 65 1017.7
20260904073626 63 158 4.0 6.0 0.00 0.00 0.00 64 1017.6
20260904073122 63 167 4.0 5.0 0.00 0.00 0.00 64 1017.4
20260904072618 63 171 4.0 6.0 0.00 0.00 0.00 63 1017.5
20260904072113 63 177 4.0 6.0 0.00 0.00 0.00 63 1017.6
20260904071609 62 175 6.0 7.0 0.00 0.00 0.00 64 1017.5
20260904071103 61 198 4.0 5.0 0.00 0.00 0.00 68 1017.9
20260904070603 62 201 4.0 6.0 0.00 0.00 0.00 67 1017.7
20260904070058 63 182 4.0 5.0 0.00 0.00 0.00 64 1018.1
20260904065552 63 171 5.0 6.0 0.00 0.00 0.00 63 1017.7
20260904065049 63 174 3.0 5.0 0.00 0.00 0.00 63 1017.5
20260904064544 63 167 1.0 5.0 0.00 0.00 0.00 62 1017.5
20260904064044 63 173 4.0 6.0 0.00 0.00 0.00 63 1017.6
20260904063540 62 186 5.0 6.0 0.00 0.00 0.00 64 1017.7
20260904063035 62 201 5.0 6.0 0.00 0.00 0.00 66 1017.5
20260904062532 62 202 4.0 5.0 0.00 0.00 0.00 66 1017.6
20260904062027 62 212 4.0 5.0 0.00 0.00 0.00 66 1017.7
20260904061522 63 210 4.0 5.0 0.00 0.00 0.00 63 1017.6
20260904061013 63 206 4.0 6.0 0.00 0.00 0.00 62 1017.5
20260904060509 64 206 3.0 3.0 0.00 0.00 0.00 61 1017.5
20260904060005 65 181 4.0 6.0 0.00 0.00 0.00 59 1017.5
20260904055500 66 183 5.0 6.0 0.00 0.00 0.00 57 1017.5
20260904054955 66 177 3.0 5.0 0.00 0.00 0.00 57 1017.4
20260904054451 68 157 4.0 5.0 0.00 0.00 0.00 55 1017.4
20260904053947 68 163 1.0 3.0 0.00 0.00 0.00 53 1017.1
20260904053446 66 169 0.0 2.0 0.00 0.00 0.00 54 1017.3
20260904052942 64 172 2.0 2.0 0.00 0.00 0.00 58 1017.4
20260904052438 63 187 0.0 0.0 0.00 0.00 0.00 59 1017.5
20260904051934 63 179 0.0 0.0 0.00 0.00 0.00 60 1017.4
20260904051430 62 179 0.0 0.0 0.00 0.00 0.00 60 1017.5
20260904050929 62 186 0.0 0.0 0.00 0.00 0.00 62 1017.5
20260904050426 62 186 0.0 0.0 0.00 0.00 0.00 63 1017.7
20260904045926 62 186 0.0 0.0 0.00 0.00 0.00 62 1017.4
20260904045421 62 186 0.0 0.0 0.00 0.00 0.00 63 1017.4
20260904044920 63 186 0.0 0.0 0.00 0.00 0.00 62 1017.5
20260904044417 63 187 0.0 0.0 0.00 0.00 0.00 63 1017.5
20260904043913 64 186 0.0 0.0 0.00 0.00 0.00 62 1017.5
20260904043410 64 186 0.0 0.0 0.00 0.00 0.00 58 1017.4
20260904042905 63 186 0.0 0.0 0.00 0.00 0.00 60 1017.1
20260904042401 63 185 0.0 0.0 0.00 0.00 0.00 63 1017.5
20260904041855 63 190 0.0 0.0 0.00 0.00 0.00 63 1017.5
20260904041352 63 208 0.0 0.0 0.00 0.00 0.00 64 1017.5
20260904040848 64 200 0.0 0.0 0.00 0.00 0.00 62 1017.4
20260904040342 64 191 0.0 0.0 0.00 0.00 0.00 61 1017.5
20260904035838 63 177 0.0 0.0 0.00 0.00 0.00 61 1017.4
20260904035334 64 178 0.0 0.0 0.00 0.00 0.00 63 1017.7
20260904034833 65 191 0.0 0.0 0.00 0.00 0.00 59 1017.6
20260904034329 64 193 0.0 0.0 0.00 0.00 0.00 61 1017.5
20260904033825 64 190 0.0 0.0 0.00 0.00 0.00 61 1017.4
20260904033321 64 199 0.0 0.0 0.00 0.00 0.00 61 1017.5
20260904032817 65 196 0.0 0.0 0.00 0.00 0.00 59 1017.4
20260904032317 65 189 0.0 0.0 0.00 0.00 0.00 59 1017.5
20260904031811 66 188 0.0 0.0 0.00 0.00 0.00 57 1017.6
20260904031306 66 173 0.0 0.0 0.00 0.00 0.00 56 1017.5
20260904030802 68 154 0.0 0.0 0.00 0.00 0.00 55 1017.3
20260904030258 68 138 1.0 3.0 0.00 0.00 0.00 53 1017.3
20260904025754 68 143 0.0 0.0 0.00 0.00 0.00 53 1017.1
20260904025249 68 139 4.0 5.0 0.00 0.00 0.00 53 1017.3
20260904024743 69 137 5.0 6.0 0.00 0.00 0.00 52 1017.0
20260904024239 69 138 5.0 5.0 0.00 0.00 0.00 51 1017.1
20260904023735 69 133 5.0 5.0 0.00 0.00 0.00 51 1017.0
20260904023231 69 136 5.0 6.0 0.00 0.00 0.00 51 1017.0
20260904022724 69 138 4.0 6.0 0.00 0.00 0.00 50 1016.9
20260904022222 69 148 4.0 6.0 0.00 0.00 0.00 51 1017.1
20260904021717 70 141 5.0 6.0 0.00 0.00 0.00 50 1016.8
20260904021212 70 131 4.0 5.0 0.00 0.00 0.00 50 1017.1
20260904020708 69 150 3.0 3.0 0.00 0.00 0.00 50 1017.3
20260904020207 70 145 3.0 3.0 0.00 0.00 0.00 52 1016.8
20260904015706 70 149 3.0 5.0 0.00 0.00 0.00 51 1016.8
20260904015207 71 144 3.0 5.0 0.00 0.00 0.00 51 1016.8
20260904014706 71 152 4.0 5.0 0.00 0.00 0.00 49 1016.8
20260904014201 72 149 4.0 6.0 0.00 0.00 0.00 48 1016.8
20260904013657 72 148 5.0 7.0 0.00 0.00 0.00 47 1016.7
20260904013153 73 138 4.0 7.0 0.00 0.00 0.00 46 1016.7
20260904012649 73 158 5.0 5.0 0.00 0.00 0.00 46 1016.9
20260904012148 74 160 4.0 6.0 0.00 0.00 0.00 45 1016.7
20260904011647 75 157 4.0 6.0 0.00 0.00 0.00 44 1016.8
20260904011143 76 144 6.0 8.0 0.00 0.00 0.00 42 1016.6
20260904010638 77 145 6.0 9.0 0.00 0.00 0.00 40 1016.6